Tracking 31027 objects as of 19-Jul-2025
HD Live streaming from Space Station
objects crossing your sky now

TITAN 3D DEB

Track TITAN 3D DEB now!
10-day predictions


NORAD ID: 6824
Int'l Code: 1972-079E
Perigee: 1,439.0 km
Apogee: 1,450.4 km
Inclination: 95.5 °
Period: 114.6 minutes
Semi major axis: 7815 km
RCS: 0.0728 m2 (small)
Launch date: October 10, 1972
Source: United States (US)
Launch site: AIR FORCE WESTERN TEST RANGE (AFWTR)

Note: This is SATELLITE DEBRIS
Your satellite tracking list
CREW DRAGON DEMO-2 DEB
Track 1 satellite(s)




NASA's NSSDC Master Catalog

Two Line Element Set (TLE):
1  6824U 72079E   25198.46100287  .00000008  00000-0  11682-3 0  9997
2  6824  95.5023  22.9384 0007334  42.1544 345.5756 12.56463068419371
Source of the keplerian elements: AFSPC